FW2187 Weather Reports


time (UTC)temp
F
wind
direction
speed
knots
gust
knots
rain 1hr
in
rain 24hr
in
rain mn
in
humidity
%
barometer
mb
20260504212517 66 207 4.3 7.8 0.00 0.00 0.00 45 1010.0
20260504211516 66 188 3.5 8.7 0.00 0.00 0.00 45 1009.9
20260504210517 67 194 3.5 7.8 0.00 0.00 0.00 44 1009.9
20260504205615 67 202 3.5 6.1 0.00 0.00 0.00 43 1009.9
20260504204517 67 199 3.5 7.8 0.00 0.00 0.00 43 1010.0
20260504203515 67 201 2.6 7.8 0.00 0.00 0.00 42 1010.0
20260504202516 68 199 4.3 7.8 0.00 0.00 0.00 41 1010.0
20260504201516 68 185 3.5 8.7 0.00 0.00 0.00 40 1010.1
20260504200515 69 200 2.6 7.0 0.00 0.00 0.00 39 1010.2
20260504195718 70 0.0 7.8 0.00 0.00 0.00 37 1010.2
20260504194515 71 197 2.6 5.2 0.00 0.00 0.00 36 1010.2
20260504193516 71 195 2.6 6.1 0.00 0.00 0.00 36 1010.2
20260504192615 71 197 2.6 8.7 0.00 0.00 0.00 35 1010.2
20260504191616 72 200 2.6 7.0 0.00 0.00 0.00 36 1010.2
20260504190515 71 206 2.6 7.0 0.00 0.00 0.00 35 1010.2
20260504185515 72 209 3.5 8.7 0.00 0.00 0.00 34 1010.2
20260504184515 72 193 2.6 7.8 0.00 0.00 0.00 33 1010.2
20260504183515 73 204 2.6 6.1 0.00 0.00 0.00 33 1010.5
20260504182515 72 214 1.7 6.1 0.00 0.00 0.00 33 1010.6
20260504181515 72 169 2.6 9.6 0.00 0.00 0.00 32 1010.7
20260504180516 72 200 2.6 6.1 0.00 0.00 0.00 33 1010.8
20260504175516 71 231 1.7 7.8 0.00 0.00 0.00 34 1011.1
20260504174515 71 213 2.6 7.0 0.00 0.00 0.00 33 1011.2
20260504173516 70 188 1.7 5.2 0.00 0.00 0.00 33 1011.3
20260504172515 70 205 3.5 7.8 0.00 0.00 0.00 32 1011.1
20260504171616 70 201 1.7 7.8 0.00 0.00 0.00 34 1011.3
20260504170615 70 166 1.7 10.4 0.00 0.00 0.00 35 1011.3
20260504150515 64 193 3.5 7.0 0.00 0.00 0.00 38 1012.3
20260504140514 60 205 2.6 7.0 0.00 0.00 0.00 44 1012.9
20260504130517 56 212 1.7 4.3 0.00 0.00 0.00 51 1013.6
20260504110517 48 182 0.9 2.6 0.00 0.00 0.00 61 1013.5
20260504100516 42 209 0.9 1.7 0.00 0.00 0.00 71 1013.0
20260504081516 42 288 0.0 0.9 0.00 0.00 0.00 71 1012.4
20260504080516 42 288 0.0 1.7 0.00 0.00 0.00 69 1012.5
20260504050516 40 0.0 0.0 0.00 0.00 0.00 66 1012.5
20260504045516 40 0.0 0.9 0.00 0.00 0.00 65 1012.4
20260504044516 40 290 0.9 0.9 0.00 0.00 0.00 64 1012.5
20260504043516 40 0.0 0.0 0.00 0.00 0.00 65 1012.5
20260504042517 40 290 0.0 0.9 0.00 0.00 0.00 65 1012.5
20260504041516 40 0.0 0.0 0.00 0.00 0.00 63 1012.4
20260504040615 40 292 0.0 0.9 0.00 0.00 0.00 62 1012.3
20260504035516 40 0.0 0.0 0.00 0.00 0.00 62 1012.1
20260504034515 40 291 0.0 0.9 0.00 0.00 0.00 62 1012.1
20260504033515 40 0.0 0.9 0.00 0.00 0.00 63 1012.0
20260504032516 41 0.0 0.0 0.00 0.00 0.00 63 1012.0
20260504031517 41 0.0 0.0 0.00 0.00 0.00 62 1012.1
20260504030515 41 0.0 0.0 0.00 0.00 0.00 63 1012.1
20260504025515 41 0.0 0.0 0.00 0.00 0.00 62 1012.0
20260504024616 42 0.0 0.9 0.00 0.00 0.00 61 1012.0
20260504023515 42 289 0.0 1.7 0.00 0.00 0.00 62 1012.1
20260504022516 43 288 0.0 1.7 0.00 0.00 0.00 58 1012.0
20260504021616 43 288 0.0 0.9 0.00 0.00 0.00 58 1012.0
20260504020515 43 288 0.0 0.9 0.00 0.00 0.00 58 1012.0
20260504015515 44 0.0 0.0 0.00 0.00 0.00 56 1012.0
20260504014516 44 0.0 0.0 0.00 0.00 0.00 54 1011.9
20260504013515 45 288 0.0 0.9 0.00 0.00 0.00 55 1011.9
20260504012515 45 0.0 0.9 0.00 0.00 0.00 56 1011.8
20260504011517 46 291 0.0 0.9 0.00 0.00 0.00 51 1011.6
20260504010515 46 0.0 0.0 0.00 0.00 0.00 51 1011.4
20260504005515 47 0.0 0.0 0.00 0.00 0.00 49 1011.3
20260504004515 47 0.0 0.0 0.00 0.00 0.00 48 1011.2
20260504003516 48 0.0 0.0 0.00 0.00 0.00 47 1011.0
20260504002515 48 0.0 0.0 0.00 0.00 0.00 46 1010.9
20260504001516 49 0.0 0.0 0.00 0.00 0.00 46 1010.7
20260504000615 49 290 0.0 0.9 0.00 0.00 0.00 45 1010.6
20260503235616 50 290 0.0 1.7 0.00 0.00 0.00 45 1010.5
20260503234515 50 289 0.0 1.7 0.00 0.00 0.00 43 1010.4
20260503233515 51 287 0.9 2.6 0.00 0.00 0.00 43 1010.4
20260503232516 51 285 0.9 2.6 0.00 0.00 0.00 43 1010.3
20260503231516 51 305 0.9 2.6 0.00 0.00 0.00 42 1010.2
20260503230515 51 302 0.9 3.5 0.00 0.00 0.00 41 1010.1
20260503225516 51 11 0.9 3.5 0.00 0.00 0.00 42 1010.1
20260503224515 52 326 1.7 4.3 0.00 0.00 0.00 42 1010.0
20260503223616 52 81 1.7 7.8 0.00 0.00 0.00 41 1009.9
20260503222516 52 348 1.7 7.0 0.00 0.00 0.00 41 1009.8
20260503221515 52 323 0.9 3.5 0.00 0.00 0.00 43 1009.7
20260503221017 52 44 1.7 4.3 0.00 0.00 0.00 42 1009.8
20260503215515 51 24 1.7 5.2 0.00 0.00 0.00 43 1009.9
20260503214515 51 305 2.6 8.7 0.00 0.00 0.00 42 1009.9
20260503213516 52 351 1.7 6.1 0.00 0.00 0.00 42 1009.8